Regional Weather Roundup
Issued by NWS

Home | Current Version | Previous Version | Text Only | Print | Product List | Glossary On
Versions: 1 2 3 4 5 6 7 8 9 10 11 12 13 14 15 16 17 18 19 20 21 22 23 24 25 26 27 28 29 30 31 32 33 34 35 36 37 38 39 40 41 42 43 44 45 46 47 48 49 50
000
ASUS43 KDTX 040910
RWRMI
MICHIGAN HOURLY REGIONAL WEATHER ROUNDUP
NATIONAL WEATHER SERVICE DETROIT/PONTIAC MI
500 AM EDT TUE AUG 04 2015

NOTE: "FAIR" INDICATES FEW OR NO CLOUDS BELOW 12,000 FEET WITH NO
SIGNIFICANT WEATHER AND/OR OBSTRUCTION TO VISIBILITY.

MIZ047>049-052>055-059>063-066>070-074>076-081>083-041000-
SOUTHEAST LOWER MICHIGAN

CITY           SKY/WX    TMP DP  RH WIND       PRES   REMARKS
ADRIAN         CLEAR     56  53  90 W5        29.92R
ALMA           CLEAR     55  55  98 CALM      29.88S
ANN ARBOR      CLEAR     54  52  93 CALM      29.90R
BAD AXE        CLEAR     54  52  95 CALM      29.87S
DETROIT CITY   PTCLDY    64  52  64 W3        29.89R
DETROIT        PTCLDY    62  53  72 W3        29.89S
FLINT          CLOUDY    61  55  81 CALM      29.88S
GROSSE ILE     PTCLDY    63  54  72 W3        29.88S
HILLSDALE      PTCLDY    60  53  77 CALM      29.92S
HOWELL         CLEAR     58  53  84 CALM      29.89S

CITY           SKY/WX    TMP DP  RH WIND       PRES   REMARKS
JACKSON        CLEAR     57  53  86 SW6       29.90S
LAMBERTVILLE   CLEAR     58  54  85 CALM      29.91R
LANSING        PTCLDY    60  52  74 W5        29.89R
LAPEER         NOT AVBL
MASON          MOCLDY    56  52  88 CALM      29.90R
MONROE         CLEAR     56  54  94 CALM      29.89S
MT. CLEMENS    PTCLDY    62  54  76 W6        29.86S
PONTIAC        PTCLDY    60  53  77 SW3       29.89R
PORT HURON     CLOUDY    55  55 100 CALM      29.87S
TRI CITIES     CLEAR     60  54  80 W6        29.88R
YPSILANTI      PTCLDY    63  53  70 W3        29.90S
$$
MIZ043>046-050>051-056>058-064>065-071>073-077>080-041000-
SOUTHWEST LOWER MICHIGAN

CITY           SKY/WX    TMP DP  RH WIND       PRES   REMARKS
BATTLE CREEK     N/A    N/A N/A N/A MISG      29.91R
BENTON HARBOR  CLEAR     58  56  93 CALM      29.90R
BIG RAPIDS     CLEAR     55  54  95 CALM      29.87S
COLDWATER      CLEAR     57  52  83 SW3       29.91S
HOLLAND        CLEAR     59  56  89 CALM      29.89S
GRAND RAPIDS   CLEAR     62  55  77 W6        29.89R
KALAMAZOO      PTCLDY    61  54  77 CALM      29.90S
MARSHALL       CLEAR     56  53  88 CALM      29.90S
MUSKEGON       CLEAR     67  58  72 W7        29.88S
$$
MIZ016>042-041000-
NORTHERN LOWER MICHIGAN

CITY           SKY/WX    TMP DP  RH WIND       PRES   REMARKS
ALPENA         CLEAR     53  51  93 CALM      29.84S
BEAVER ISLAND  PTCLDY    61  58  91 W6        29.82S
BELLAIRE       CLOUDY    58  56  94 CALM      29.83F
CADILLAC       PTCLDY    49  48  97 CALM      29.87R
CHARLEVOIX     CLOUDY    61  58  90 SW6       29.85S
FRANKFORT      CLOUDY    64  61  89 NW7       29.85S
GAYLORD        CLOUDY    56  56 100 SW3       29.85S
GRAYLING       CLOUDY    52  51  97 CALM      29.86S
HARBOR SPRINGS CLOUDY    58  57  96 CALM      29.82S
HOUGHTON LAKE  MOCLDY    50  49  96 CALM      29.87S
MANISTEE       CLEAR     54  50  87 CALM      29.87R
OSCODA         PTCLDY    56  54  92 CALM      29.85S
PELLSTON       LGT RAIN  53  52  96 CALM      29.82S
TRAVERSE CITY  MOCLDY    59  55  87 SW3       29.82F
$$
MIZ007>008-015-041000-
EASTERN UPPER MICHIGAN

CITY           SKY/WX    TMP DP  RH WIND       PRES   REMARKS
KINROSS        MOCLDY    55  54  94 CALM      29.81S
MACKINAC ISLAN LGT RAIN  59  59 100 N3        29.81S
NEWBERRY       PTCLDY    55  54  97 W7        29.81S
S. S. MARIE    CLOUDY    56  53  90 CALM      29.80S
$$
MIZ004>006-011>014-085-041000-
CENTRAL UPPER MICHIGAN

CITY           SKY/WX    TMP DP  RH WIND       PRES   REMARKS
MANISTIQUE     MOCLDY    57  55  94 NW5       29.82S
ESCANABA       CLOUDY    55  54  94 W5        29.83S
MENOMINEE      CLOUDY    61  54  77 NW3       29.86R
SAWYER-GWINN   PTCLDY    54  51  92 CALM      29.85R
$$
MIZ001>003-009>011-084-041000-
WESTERN UPPER MICHIGAN

CITY           SKY/WX    TMP DP  RH WIND       PRES   REMARKS
IRON MOUNTAIN  PTCLDY    57  54  89 CALM      29.85S
HOUGHTON       CLOUDY    56  53  90 NW5       29.84S
COPPER HARBOR    N/A     58  54  86 N5        29.83R
IRONWOOD       CLOUDY    57  55  94 W7        29.87R
$$

ABBREVIATIONS USED IN REMARKS
   TC - TEMPERATURE IN CELSIUS
  WCI - WIND CHILL INDEX
   HX - HEAT INDEX
  VSB - VISIBILITY



USA.gov is the U.S. government's official web portal to all federal, state and local government web resources and services.